User: anonymous   Login
Location: Irma
(52.9170°N, 111.2330°W)
Time: 02:29:51
(UTC-06:00)
Language:

Cosmos 2279 Rocket - Orbit

View from above orbital plane
View from above orbital plane
View from above satellite
View from above satellite

Ground track
Ground track

The orbit data is extracted from the following two-line orbital elements,

1 23093U 94024B   14298.50864750  .00000110  00000-0  95265-4 0  9268
2 23093 082.9446 112.6541 0010178 184.8832 175.2228 13.77631359498466
Epoch (UTC): 25 October 2014 12:12:27
Eccentricity: 0.0010178
inclination: 82.9446°
perigee height: 965 km
apogee height: 980 km
right ascension of ascending node: 112.6541°
argument of perigee: 184.8832°
revolutions per day: 13.77631359
mean anomaly at epoch: 175.2228°
orbit number at epoch: 49846

The dashed part of the orbit path shows where the satellite is in the earth's shadow,  

DLR